Randolph AFB, TX

7:03 AM CDT on August 18, 2017 (GMT -0500)
Randolph Air Force Base

Weather History for KRND - March, 2013

Change the Weather History Date:

Wednesday, March 20, 2013

  Actual Average Record
Temperature  
Mean Temperature 65 °F -  
Max Temperature 73 °F 70 °F 83 °F (2017)
Min Temperature 55 °F 51 °F 35 °F (2001)
Growing Degree Days 15 (Base 50)    
Moisture  
Dew Point 50 °F    
Average Humidity 63    
Maximum Humidity 88    
Minimum Humidity 30    
Precipitation  
Precipitation 0.00 in - - ()
Sea Level Pressure  
Sea Level Pressure 30.08 in    
Wind  
Wind Speed 12 mph (NE)    
Max Wind Speed 18 mph    
Max Gust Speed 30 mph    
Visibility 10 miles    
Events Rain    
Averages and records for this station are not official NWS values.
T = Trace of Precipitation, MM = Missing Value Source: NWS Daily Summary

Daily Weather History Graph

Daily Weather History Graph

Search for Another Location

Airport or City:

Trip Planner

Search our weather history database for the weather conditions in past years. The results will help you decide how hot, cold, wet, or windy it might be!

Date:

Astronomy

Mar. 20, 2013 Rise Set
Actual Time 7:36 AM CDT 7:44 PM CDT
Civil Twilight 7:12 AM CDT 8:08 PM CDT
Nautical Twilight 6:45 AM CDT 8:36 PM CDT
Astronomical Twilight 6:17 AM CDT 9:04 PM CDT
Moon 1:44 PM CDT (3/20) 2:53 AM CDT (3/20)
Length of Visible Light 12h 55m
Length of Day
12h 08m
First Quarter, 59% of the Moon is Illuminated
Mar 20
First Quarter
Mar 27
Full
Apr 2
Last Quarter
Apr 10
New
Apr 18
First Quarter

Hourly Weather History & Observations

Time (CDT) Temp. Dew Point Humidity Pressure Visibility Wind Dir Wind Speed Gust Speed Precip Events Conditions
12:05 AM 69.8 °F 66.2 °F 88% 29.96 in 10.0 mi East 8.1 mph - N/A   Mostly Cloudy
12:54 AM 69.8 °F 66.2 °F 88% 29.98 in 10.0 mi NE 8.1 mph - N/A   Mostly Cloudy
12:58 AM 68.9 °F 65.3 °F 88% 29.96 in 10.0 mi ENE 9.2 mph - N/A   Mostly Cloudy
1:05 AM 69.8 °F 64.4 °F 83% 29.98 in 10.0 mi ENE 10.4 mph - N/A   Overcast
1:46 AM 68.0 °F 57.2 °F 68% 30.01 in 8.0 mi NNE 17.3 mph 28.8 mph N/A   Light Drizzle
1:53 AM 66.2 °F 55.4 °F 68% 30.02 in 9.0 mi NNE 16.1 mph 26.5 mph N/A Rain Light Rain
1:58 AM 65.3 °F 55.6 °F 71% 30.00 in 10.0 mi NE 16.1 mph 26.5 mph 0.00 in Rain Light Rain
2:05 AM 64.4 °F 55.4 °F 73% 30.02 in 10.0 mi NNE 13.8 mph 24.2 mph N/A   Light Drizzle
2:22 AM 64.4 °F 53.6 °F 68% 30.03 in 10.0 mi NNE 15.0 mph 26.5 mph N/A   Overcast
2:43 AM 62.6 °F 55.4 °F 77% 30.04 in 10.0 mi NE 15.0 mph 21.9 mph N/A   Overcast
2:58 AM 61.5 °F 52.9 °F 73% 30.04 in 10.0 mi NNE 17.3 mph 28.8 mph 0.00 in   Overcast
3:54 AM 60.8 °F 53.6 °F 77% 30.05 in 10.0 mi NE 13.8 mph 29.9 mph N/A   Overcast
3:58 AM 60.6 °F 52.7 °F 75% 30.04 in 10.0 mi NE 16.1 mph 26.5 mph N/A   Overcast
4:47 AM 60.8 °F 51.8 °F 72% 30.08 in 10.0 mi NE 16.1 mph 23.0 mph N/A   Overcast
4:58 AM 60.3 °F 52.2 °F 75% 30.07 in 10.0 mi NE 15.0 mph 23.0 mph N/A   Overcast
5:58 AM 59.4 °F 52.3 °F 78% 30.08 in 10.0 mi NE 13.8 mph 19.6 mph N/A   Mostly Cloudy
6:58 AM 57.4 °F 53.2 °F 86% 30.13 in 10.0 mi North 15.0 mph - N/A   Mostly Cloudy
7:33 AM 57.2 °F 53.6 °F 88% 30.15 in 10.0 mi NNE 12.7 mph - N/A   Mostly Cloudy
7:58 AM 57.7 °F 53.6 °F 86% 30.17 in 10.0 mi North 10.4 mph - N/A   Overcast
8:58 AM 58.5 °F 53.4 °F 83% 30.19 in 10.0 mi North 12.7 mph - N/A   Overcast
9:58 AM 59.9 °F 53.2 °F 79% 30.20 in 10.0 mi North 15.0 mph - N/A   Overcast
10:47 AM 62.6 °F 51.8 °F 68% 30.22 in 10.0 mi NNE 12.7 mph 20.7 mph N/A   Mostly Cloudy
10:58 AM 62.4 °F 52.5 °F 70% 30.21 in 10.0 mi NNE 12.7 mph 19.6 mph N/A   Scattered Clouds
11:58 AM 64.0 °F 52.0 °F 65% 30.21 in 10.0 mi NNE 13.8 mph 20.7 mph N/A   Partly Cloudy
12:58 PM 67.5 °F 49.1 °F 52% 30.20 in 10.0 mi NNE 12.7 mph 20.7 mph N/A   Clear
1:58 PM 69.8 °F 46.9 °F 44% 30.17 in 10.0 mi ENE 18.4 mph 27.6 mph N/A   Clear
2:58 PM 71.6 °F 43.7 °F 37% 30.14 in 10.0 mi ENE 16.1 mph 23.0 mph N/A   Partly Cloudy
3:58 PM 72.1 °F 43.7 °F 36% 30.12 in 10.0 mi NE 15.0 mph 28.8 mph N/A   Clear
4:43 PM 73.4 °F 41.0 °F 31% 30.11 in 10.0 mi NE 16.1 mph - N/A   Clear
4:49 PM 73.4 °F 42.8 °F 33% 30.10 in 10.0 mi East 12.7 mph - N/A   Clear
4:58 PM 72.5 °F 41.4 °F 32% 30.08 in 10.0 mi ENE 16.1 mph 19.6 mph N/A   Clear
5:58 PM 72.7 °F 39.6 °F 30% 30.07 in 10.0 mi East 10.4 mph - N/A   Clear
6:58 PM 70.2 °F 37.9 °F 31% 30.07 in 10.0 mi ENE 9.2 mph - N/A   Clear
7:58 PM 64.9 °F 36.9 °F 35% 30.06 in 10.0 mi ENE 4.6 mph - N/A   Clear
8:58 PM 61.0 °F 38.1 °F 43% 30.06 in 10.0 mi East 4.6 mph - N/A   Clear
9:58 PM 57.7 °F 38.8 °F 49% 30.06 in 10.0 mi East 3.5 mph - N/A   Clear
10:55 PM 57.2 °F 39.2 °F 51% 30.06 in 10.0 mi East 4.6 mph - N/A   Scattered Clouds
11:58 PM 55.2 °F 41.0 °F 59% 30.04 in 10.0 mi East 4.6 mph - N/A   Clear